Weather in Zakulta

Russia / Zabaykalsky Krai     51°21′37″N   109°44′17″E
temp.,
°C
wind,
m/s
gust,
m/s
humid.,
%
clouds,
%
prec.,
mm/h
press.,
hPa
HPBL,
m
22 april, thu
thu2200:00−4w116322 0.0 102017
03:00−4nw1167100 0.0 102249
06:00−6sse1277100 0.0 102548
09:00−2n125555 0.0 1026628
12:00+3nne2334100 0.0 10241221
15:00+6n3331100 0.0 10221704
18:00+4n5533100 0.0 10251327
21:00+1nne4750100 0.0 1028768
23 april, fri
fri2300:00−2nne2495100 0.8 1033268
03:00−2nne1397100 6.1 1035227
06:00−3n2598100 2.9 1037371
09:00−1ne2484100 3.1 1038633
12:00+1ne4571100 0.1 10381125
15:00+3ne4565100 0.1 10361095
18:00+4ese2467100 0.1 10351101
21:000sse1194100 0.2 103713
24 april, sat
sat2400:00−2ese1192100 0.0 103826
03:00−2e1194100 0.0 103727
06:00−3e1194100 0.0 103620
09:00+1ene1276100 0.1 1035241
12:00+7e2468100 0.0 1029855
15:00+10ese4663100 0.0 10251010
18:00+9ese2771100 0.0 1022372
21:00+5se1195100 0.4 102320
25 april, sun
sun2500:00+4se2195100 0.1 102222
03:00+4ese2396100 2.6 101990
06:00+3n1199100 1.1 101640
09:00+4se1196100 2.5 101636
12:00+4wsw2597100 0.4 1015875
15:00+2w2699100 0.8 1017573
18:00+1wsw2398100 0.7 1017151
21:000w2598100 1.5 1018202
26 april, mon
mon2600:00−1wsw2595100 0.6 1017414
03:00−2w2690100 0.6 1016509
06:00−5wsw129888 0.0 101669
09:00−1nw368198 0.1 1014771
12:00+3nw5761100 0.1 10121464
15:00+5nw7951100 0.1 10101878
18:00+4nw7954100 0.0 10121980
21:00−1wnw4106910 0.1 1015439